This demonstration page uses our WeatherBlox Daily Observations layout. Learn more.

Left ArrowRight Arrow

Hourly Observations for April 13, 2021

Temp ( °F °C ) Dew Point ( °F °C ) Humidity (%) Winds ( mph kmh ) Pressure ( in mb ) Visibility ( mi km ) Precip ( " mm )
12:53 am 00:53 Clear 61 16.1 47 8.3 60 60 Calm 29.95 1014 10 16 0.00 0.00
1:53 am 01:53 Clear 57 13.9 47 8.3 69 69 Calm 29.95 1014 10 16 0.00 0.00
2:53 am 02:53 Clear 54 12.2 48 8.9 80 80 Calm 29.96 1015 10 16 0.00 0.00
3:53 am 03:53 Clear 54 12.2 49 9.4 83 83 Calm 29.97 1015 10 16 0.00 0.00
4:53 am 04:53 Clear 51 10.6 49 9.4 92 92 Calm 29.98 1015 10 16 0.00 0.00
5:53 am 05:53 Clear 51 10.6 48 8.9 89 89 NE 3 6 30.00 1016 10 16 0.00 0.00
6:53 am 06:53 Clear 51 10.6 48 8.9 89 89 Calm 30.02 1017 10 16 0.00 0.00
7:53 am 07:53 Sunny 51 10.6 49 9.4 92 92 NE 3 6 30.04 1017 10 16 0.00 0.00
8:53 am 08:53 Sunny 58 14.4 51 10.6 78 78 Calm 30.04 1017 10 16 0.00 0.00
9:53 am 09:53 Sunny 67 19.4 49 9.4 53 53 Calm 30.06 1018 10 16 0.00 0.00
10:53 am 10:53 Mostly Sunny 73 22.8 51 10.6 46 46 NE 3 6 30.07 1018 10 16 0.00 0.00
11:53 am 11:53 Sunny 78 25.6 47 8.3 33 33 VRB 5 7 30.08 1019 10 16 0.00 0.00
12:53 pm 12:53 Sunny 81 27.2 46 7.8 29 29 VRB 5 7 30.06 1018 10 16 0.00 0.00
1:53 pm 13:53 Sunny 82 27.8 47 8.3 29 29 ESE 7 11 30.03 1017 10 16 0.00 0.00
2:53 pm 14:53 Sunny 83 28.3 45 7.2 26 26 VRB 3 6 30.02 1017 10 16 0.00 0.00
3:53 pm 15:53 Mostly Sunny 85 29.4 45 7.2 25 25 N 3 6 30.00 1016 10 16 0.00 0.00
4:53 pm 16:53 Sunny 85 29.4 42 5.6 22 22 NW 9 15 29.99 1016 10 16 0.00 0.00
5:53 pm 17:53 Sunny 85 29.4 38 3.3 19 19 W 8 13 29.99 1016 10 16 0.00 0.00
6:53 pm 18:53 Sunny 84 28.9 40 4.4 21 21 W 5 7 29.99 1016 10 16 0.00 0.00
7:53 pm 19:53 Sunny 75 23.9 46 7.8 36 36 WNW 3 6 30.01 1016 10 16 0.00 0.00
8:53 pm 20:53 Clear 75 23.9 42 5.6 31 31 Calm 30.03 1017 10 16 0.00 0.00
9:53 pm 21:53 Clear 68 20 48 8.9 49 49 Calm 30.05 1018 10 16 0.00 0.00
10:53 pm 22:53 Clear 63 17.2 50 10 63 63 Calm 30.05 1018 10 16 0.00 0.00
11:53 pm 23:53 Clear 64 17.8 50 10 60 60 S 5 7 30.05 1018 10 16 0.00 0.00

Powered by AerisWeather